AZA1961 LICA-LIML

Flight info

Callsign AZA1961
Flight time N/A
Altitude 18000
Route ARBUM M620 EVINO/N0461F340 DCT SOR DCT LAT DCT OST DCT MEDAL DCT GILIO DCT KARDU DCT EMBOS DCT GIPIX DCT KALMO
Aircraft A321/M-SDE3FGHIRWY/LB1

Departure

Time 2026-04-29 15:13
Airport Lamezia Terme Sant'Eufemia International Airport (LICA)

Arrival

Time N/A
Airport Milano Linate Airport (LIML)
Time Latitude Longitude Altitude Speed Heading
2026-04-29 15:11 38.90438 16.26281 48 ft 0 kts 174°
2026-04-29 15:12 38.90428 16.26283 48 ft 4 kts 174°
2026-04-29 15:12 38.90398 16.26284 48 ft 9 kts 183°
2026-04-29 15:12 38.90313 16.26214 49 ft 15 kts 263°
2026-04-29 15:12 38.90354 16.25762 45 ft 93 kts 278°
2026-04-29 15:13 38.90484 16.24644 38 ft 161 kts 279°
2026-04-29 15:13 38.90675 16.23136 643 ft 174 kts 279°
2026-04-29 15:13 38.90861 16.21597 1573 ft 177 kts 278°
2026-04-29 15:13 38.91049 16.19998 2100 ft 187 kts 278°
2026-04-29 15:14 38.91248 16.18255 2266 ft 208 kts 277°
2026-04-29 15:14 38.91463 16.16323 2390 ft 231 kts 278°
2026-04-29 15:14 38.91707 16.14179 2657 ft 251 kts 277°
2026-04-29 15:14 38.92230 16.12003 3240 ft 261 kts 298°
2026-04-29 15:15 38.93336 16.10132 3919 ft 265 kts 309°
2026-04-29 15:15 38.94537 16.08326 4656 ft 267 kts 309°
2026-04-29 15:15 38.95747 16.06505 5368 ft 269 kts 310°
2026-04-29 15:15 38.96963 16.04673 6116 ft 269 kts 309°
2026-04-29 15:16 38.98175 16.02840 6833 ft 270 kts 309°
2026-04-29 15:16 38.99397 16.00987 7471 ft 272 kts 310°
2026-04-29 15:16 39.00623 15.99126 8153 ft 274 kts 309°
2026-04-29 15:16 39.01861 15.97244 8791 ft 277 kts 309°
2026-04-29 15:17 39.03154 15.95392 9464 ft 279 kts 317°
2026-04-29 15:17 39.04717 15.93949 10129 ft 282 kts 330°
2026-04-29 15:17 39.06531 15.92847 10433 ft 298 kts 334°
2026-04-29 15:17 39.08484 15.91696 10557 ft 318 kts 334°
2026-04-29 15:18 39.10559 15.90476 10678 ft 337 kts 334°
2026-04-29 15:18 39.12744 15.89193 10812 ft 354 kts 334°
2026-04-29 15:18 39.15032 15.87847 10931 ft 370 kts 334°
2026-04-29 15:18 39.17415 15.86444 11077 ft 383 kts 334°
2026-04-29 15:19 39.19862 15.85000 11427 ft 390 kts 334°
2026-04-29 15:19 39.22337 15.83532 11893 ft 393 kts 334°
2026-04-29 15:19 39.24825 15.82051 12349 ft 395 kts 334°
2026-04-29 15:19 39.27295 15.80473 12797 ft 397 kts 328°
2026-04-29 15:20 39.29552 15.78409 13250 ft 398 kts 319°
2026-04-29 15:20 39.31663 15.76080 13697 ft 401 kts 318°
2026-04-29 15:20 39.33793 15.73732 14126 ft 403 kts 318°
2026-04-29 15:20 39.35934 15.71376 14530 ft 406 kts 318°
2026-04-29 15:21 39.38087 15.69008 14932 ft 408 kts 318°
2026-04-29 15:21 39.40251 15.66625 15337 ft 410 kts 318°
2026-04-29 15:21 39.42430 15.64226 15756 ft 412 kts 318°
2026-04-29 15:21 39.44619 15.61816 16124 ft 415 kts 318°
2026-04-29 15:22 39.46822 15.59383 16519 ft 417 kts 318°
2026-04-29 15:22 39.49034 15.56932 16911 ft 419 kts 318°
2026-04-29 15:22 39.51252 15.54466 17299 ft 422 kts 318°
2026-04-29 15:22 39.53483 15.51978 17686 ft 424 kts 318°
2026-04-29 15:23 39.55724 15.49481 18051 ft 426 kts 318°
2026-04-29 15:23 39.57980 15.46973 18402 ft 429 kts 318°
2026-04-29 15:23 39.60251 15.44455 18711 ft 431 kts 318°
2026-04-29 15:23 39.62507 15.41956 19025 ft 433 kts 318°
2026-04-29 15:24 39.64832 15.39374 19349 ft 435 kts 318°
2026-04-29 15:24 39.67126 15.36817 19670 ft 437 kts 318°
2026-04-29 15:24 39.69436 15.34235 19974 ft 439 kts 318°
2026-04-29 15:24 39.71721 15.31680 20302 ft 441 kts 318°
2026-04-29 15:25 39.74082 15.29038 20625 ft 443 kts 317°
2026-04-29 15:25 39.76418 15.26423 20944 ft 444 kts 317°
2026-04-29 15:25 39.78734 15.23835 21253 ft 446 kts 317°
2026-04-29 15:25 39.81094 15.21204 21558 ft 448 kts 317°
2026-04-29 15:26 39.83467 15.18556 21859 ft 450 kts 317°
2026-04-29 15:26 39.85843 15.15896 22157 ft 452 kts 317°
2026-04-29 15:26 39.88227 15.13222 22441 ft 453 kts 317°
2026-04-29 15:26 39.90621 15.10528 22710 ft 455 kts 317°
2026-04-29 15:27 39.92208 15.08741 22891 ft 456 kts 317°
2026-04-29 15:27 39.94617 15.06032 23108 ft 459 kts 317°
2026-04-29 15:27 39.97037 15.03311 23340 ft 460 kts 317°
2026-04-29 15:27 39.99468 15.00574 23554 ft 462 kts 317°
2026-04-29 15:28 40.01902 14.97830 23737 ft 463 kts 317°
2026-04-29 15:28 40.04341 14.95077 23927 ft 464 kts 317°
2026-04-29 15:28 40.06783 14.92320 24187 ft 463 kts 317°
2026-04-29 15:28 40.09211 14.89572 24457 ft 461 kts 317°
2026-04-29 15:29 40.11631 14.86828 24735 ft 460 kts 317°
2026-04-29 15:29 40.16459 14.81349 25248 ft 459 kts 317°
2026-04-29 15:30 40.21271 14.75883 25769 ft 457 kts 317°
2026-04-29 15:30 40.23674 14.73153 26039 ft 456 kts 317°
2026-04-29 15:30 40.26069 14.70423 26309 ft 456 kts 317°
2026-04-29 15:30 40.28460 14.67696 26579 ft 455 kts 317°
2026-04-29 15:31 40.30841 14.64978 26851 ft 454 kts 317°
2026-04-29 15:31 40.33223 14.62257 27119 ft 453 kts 317°
2026-04-29 15:31 40.35595 14.59543 27389 ft 452 kts 317°
2026-04-29 15:31 40.37968 14.56830 27660 ft 452 kts 317°
2026-04-29 15:32 40.40333 14.54124 27929 ft 451 kts 317°
2026-04-29 15:32 40.42692 14.51418 28200 ft 450 kts 317°
2026-04-29 15:32 40.45047 14.48714 28483 ft 450 kts 317°
2026-04-29 15:32 40.47398 14.46012 28756 ft 449 kts 317°
2026-04-29 15:33 40.49717 14.43344 29024 ft 448 kts 317°
2026-04-29 15:33 40.52062 14.40643 29297 ft 447 kts 317°
2026-04-29 15:33 40.54399 14.37947 29565 ft 447 kts 317°
2026-04-29 15:33 40.56736 14.35251 29850 ft 446 kts 317°
2026-04-29 15:34 40.58983 14.32455 30128 ft 444 kts 311°
2026-04-29 15:34 40.61058 14.29444 30357 ft 443 kts 311°
2026-04-29 15:34 40.63131 14.26439 30582 ft 443 kts 311°
2026-04-29 15:34 40.65200 14.23445 30818 ft 442 kts 311°
2026-04-29 15:35 40.67155 14.20618 31024 ft 441 kts 310°
2026-04-29 15:35 40.69218 14.17627 31248 ft 441 kts 310°
2026-04-29 15:35 40.71281 14.14632 31472 ft 440 kts 310°
2026-04-29 15:35 40.73335 14.11645 31703 ft 440 kts 310°
2026-04-29 15:36 40.75389 14.08656 31939 ft 439 kts 310°
2026-04-29 15:36 40.77436 14.05675 32153 ft 438 kts 310°
2026-04-29 15:36 40.79484 14.02693 32378 ft 438 kts 310°
2026-04-29 15:36 40.81523 13.99718 32600 ft 437 kts 310°
2026-04-29 15:37 40.83559 13.96747 32818 ft 436 kts 310°
2026-04-29 15:37 40.85589 13.93775 33042 ft 436 kts 310°
2026-04-29 15:37 40.87591 13.90840 33250 ft 435 kts 310°
2026-04-29 15:37 40.89614 13.87875 33464 ft 434 kts 310°
2026-04-29 15:38 40.91636 13.84914 33663 ft 434 kts 309°
2026-04-29 15:38 40.93656 13.81954 33866 ft 434 kts 309°
2026-04-29 15:38 40.95678 13.78986 34026 ft 434 kts 309°
2026-04-29 15:39 40.99745 13.73007 34046 ft 439 kts 309°
2026-04-29 15:39 41.03830 13.66979 34046 ft 440 kts 309°
2026-04-29 15:40 41.07910 13.60936 34046 ft 440 kts 309°
2026-04-29 15:40 41.11997 13.54887 34046 ft 440 kts 309°
2026-04-29 15:41 41.16073 13.48839 34037 ft 440 kts 309°